User: anonymous   Login
Location: Berlin
(42.3812°N, 71.6370°W)
Time: 20:56:27
(UTC+00:00)
Language:

Meteor 2-16 Rocket - Orbit

View from above orbital plane
View from above orbital plane
View from above satellite
View from above satellite

Ground track
Ground track

The orbit is defined by the following mean orbital elements,

1 18313U          26020.14365449 +.00000000 +00000-0 +37749-4 0 00009
2 18313  82.5552  59.3727 0011100 125.1322 235.0881 13.84300186    08
Epoch (UTC): 20 January 2026 03:26:51
Eccentricity: 0.0011100
inclination: 82.5552°
perigee height: 941 km
apogee height: 957 km
right ascension of ascending node: 59.3727°
argument of perigee: 125.1322°
revolutions per day: 13.84300186
mean anomaly at epoch: 235.0881°

The dashed part of the orbit path shows where the satellite is in the earth's shadow,  

DLR